GW6170 Weather Reports


Display with metric or nautical units.
time (UTC)temp
F
wind
direction
speed
MPH
gust
MPH
rain 1hr
in
rain 24hr
in
rain mn
in
humidity
%
barometer
mb
20260505152910 58 296 1.0 1.0 0.00 0.00 0.00 69 1015.2
20260505152408 58 263 2.0 2.0 0.00 0.00 0.00 70 1015.1
20260505151907 58 301 0.0 1.0 0.00 0.00 0.00 68 1015.3
20260505151404 58 314 2.0 2.0 0.00 0.00 0.00 68 1015.2
20260505150901 57 152 0.0 0.0 0.00 0.00 0.00 68 1015.1
20260505150359 57 215 1.0 1.0 0.00 0.00 0.00 69 1015.2
20260505140328 47 122 1.0 1.0 0.00 0.00 0.00 82 1014.9
20260505130252 37 113 3.0 3.0 0.00 0.00 0.00 93 1014.3
20260505124742 37 102 3.0 3.0 0.00 0.00 0.00 91 1014.1
20260505124239 39 96 3.0 3.0 0.00 0.00 0.00 89 1014.2
20260505123734 39 93 2.0 2.0 0.00 0.00 0.00 89 1014.0
20260505123231 41 108 0.0 1.0 0.00 0.00 0.00 88 1013.9
20260505122728 40 125 1.0 1.0 0.00 0.00 0.00 91 1014.0
20260505122225 42 137 1.0 1.0 0.00 0.00 0.00 88 1014.1
20260505121722 43 135 1.0 1.0 0.00 0.00 0.00 84 1013.7
20260505121219 43 127 1.0 1.0 0.00 0.00 0.00 85 1013.9
20260505120715 43 165 1.0 2.0 0.00 0.00 0.00 86 1013.9
20260505120211 43 148 1.0 1.0 0.00 0.00 0.00 84 1013.6
20260505115704 44 170 2.0 2.0 0.00 0.00 0.00 83 1013.7
20260505115202 44 174 3.0 3.0 0.00 0.00 0.00 82 1013.7
20260505114659 43 155 2.0 2.0 0.00 0.00 0.00 86 1013.6
20260505114155 43 155 1.0 1.0 0.00 0.00 0.00 84 1013.9
20260505113652 42 151 2.0 2.0 0.00 0.00 0.00 86 1013.9
20260505113149 41 134 2.0 2.0 0.00 0.00 0.00 89 1013.6
20260505112645 39 150 2.0 2.0 0.00 0.00 0.00 89 1013.9
20260505112143 36 123 3.0 3.0 0.00 0.00 0.00 94 1014.0
20260505111642 36 109 3.0 3.0 0.00 0.00 0.00 93 1013.7
20260505111139 37 89 2.0 2.0 0.00 0.00 0.00 93 1013.9
20260505110635 39 103 3.0 3.0 0.00 0.00 0.00 88 1013.9
20260505110132 42 116 2.0 2.0 0.00 0.00 0.00 84 1013.9
20260505102108 45 152 1.0 1.0 0.00 0.00 0.00 80 1013.5
20260505101606 45 154 1.0 1.0 0.00 0.00 0.00 80 1013.4
20260505101102 46 157 1.0 2.0 0.00 0.00 0.00 79 1013.5
20260505100559 46 155 1.0 2.0 0.00 0.00 0.00 78 1013.6
20260505100056 45 165 2.0 2.0 0.00 0.00 0.00 78 1013.4
20260505095552 45 166 1.0 2.0 0.00 0.00 0.00 79 1013.4
20260505095049 46 146 2.0 2.0 0.00 0.00 0.00 76 1013.3
20260505094545 44 135 1.0 2.0 0.00 0.00 0.00 79 1013.2
20260505094041 46 132 0.0 0.0 0.00 0.00 0.00 76 1013.4
20260505093538 44 132 2.0 2.0 0.00 0.00 0.00 79 1013.4
20260505093036 40 126 3.0 3.0 0.00 0.00 0.00 86 1013.5
20260505092533 41 109 3.0 3.0 0.00 0.00 0.00 87 1013.2
20260505092031 40 144 3.0 3.0 0.00 0.00 0.00 85 1013.3
20260505091527 42 111 4.0 5.0 0.00 0.00 0.00 85 1013.4
20260505091026 42 83 2.0 2.0 0.00 0.00 0.00 85 1013.2
20260505090524 44 92 2.0 2.0 0.00 0.00 0.00 81 1013.3
20260505090021 43 108 3.0 3.0 0.00 0.00 0.00 84 1013.3
20260505085519 45 103 3.0 3.0 0.00 0.00 0.00 80 1013.2
20260505085017 46 95 0.0 0.0 0.00 0.00 0.00 77 1013.1
20260505084515 45 78 0.0 1.0 0.00 0.00 0.00 77 1013.5
20260505084012 45 70 1.0 1.0 0.00 0.00 0.00 79 1013.2
20260505083509 45 125 1.0 1.0 0.00 0.00 0.00 79 1013.2
20260505083006 46 123 0.0 0.0 0.00 0.00 0.00 79 1013.5
20260505082502 45 117 2.0 2.0 0.00 0.00 0.00 79 1013.2
20260505081959 47 96 1.0 1.0 0.00 0.00 0.00 77 1013.4
20260505081455 48 131 1.0 1.0 0.00 0.00 0.00 73 1013.2
20260505080952 46 117 0.0 0.0 0.00 0.00 0.00 77 1013.2
20260505080448 45 112 0.0 0.0 0.00 0.00 0.00 79 1013.2
20260505075943 46 117 2.0 2.0 0.00 0.00 0.00 78 1013.2
20260505075440 48 131 2.0 2.0 0.00 0.00 0.00 75 1013.1
20260505074938 43 127 3.0 3.0 0.00 0.00 0.00 82 1013.2
20260505074436 46 112 2.0 2.0 0.00 0.00 0.00 80 1013.3
20260505073932 49 146 1.0 2.0 0.00 0.00 0.00 72 1013.2
20260505073430 47 129 2.0 2.0 0.00 0.00 0.00 77 1013.1
20260505072927 42 123 4.0 5.0 0.00 0.00 0.00 86 1013.1
20260505072423 45 129 3.0 3.0 0.00 0.00 0.00 81 1013.1
20260505071919 45 126 3.0 3.0 0.00 0.00 0.00 81 1013.1
20260505071415 44 87 1.0 1.0 0.00 0.00 0.00 81 1013.1
20260505070914 47 102 1.0 1.0 0.00 0.00 0.00 76 1013.1
20260505070410 49 60 2.0 2.0 0.00 0.00 0.00 74 1012.8
20260505065905 49 109 0.0 1.0 0.00 0.00 0.00 72 1012.9
20260505065402 48 78 0.0 1.0 0.00 0.00 0.00 74 1012.9
20260505064859 48 77 2.0 2.0 0.00 0.00 0.00 76 1012.9
20260505064356 49 26 2.0 2.0 0.00 0.00 0.00 73 1012.8
20260505063855 51 150 0.0 1.0 0.00 0.00 0.00 69 1012.8
20260505063355 50 168 2.0 2.0 0.00 0.00 0.00 71 1012.8
20260505062852 52 163 2.0 2.0 0.00 0.00 0.00 70 1012.8
20260505062349 53 157 2.0 2.0 0.00 0.00 0.00 67 1012.9
20260505061846 54 192 1.0 2.0 0.00 0.00 0.00 63 1013.1
20260505061344 53 161 1.0 1.0 0.00 0.00 0.00 64 1012.8
20260505060842 51 176 1.0 1.0 0.00 0.00 0.00 66 1012.7
20260505060338 51 161 1.0 1.0 0.00 0.00 0.00 68 1012.7
20260505055834 52 172 1.0 2.0 0.00 0.00 0.00 68 1012.9
20260505055330 52 168 1.0 2.0 0.00 0.00 0.00 68 1012.7
20260505054828 52 148 0.0 0.0 0.00 0.00 0.00 67 1012.7
20260505054325 53 147 1.0 2.0 0.00 0.00 0.00 66 1012.6
20260505053823 51 163 2.0 2.0 0.00 0.00 0.00 69 1012.8
20260505053320 51 157 1.0 2.0 0.00 0.00 0.00 69 1012.7
20260505052817 52 145 0.0 1.0 0.00 0.00 0.00 68 1012.7
20260505052314 52 166 4.0 5.0 0.00 0.00 0.00 68 1012.7
20260505051810 51 174 3.0 3.0 0.00 0.00 0.00 69 1012.8
20260505051308 52 181 5.0 6.0 0.00 0.00 0.00 68 1012.7
20260505050806 52 156 3.0 3.0 0.00 0.00 0.00 69 1012.8
20260505050305 52 153 3.0 3.0 0.00 0.00 0.00 68 1012.7
20260505041734 57 150 1.0 1.0 0.00 0.00 0.00 59 1012.8
20260505041231 55 149 2.0 2.0 0.00 0.00 0.00 58 1013.1
20260505040729 56 103 2.0 2.0 0.00 0.00 0.00 62 1013.1
20260505040226 58 129 0.0 0.0 0.00 0.00 0.00 60 1012.9
20260505035723 58 108 0.0 0.0 0.00 0.00 0.00 57 1012.8
20260505035219 59 160 1.0 1.0 0.00 0.00 0.00 57 1012.7
20260505034715 57 166 1.0 1.0 0.00 0.00 0.00 59 1012.8
20260505034212 58 146 1.0 1.0 0.00 0.00 0.00 59 1012.5
20260505033708 60 176 2.0 2.0 0.00 0.00 0.00 56 1012.7
20260505033207 61 142 0.0 0.0 0.00 0.00 0.00 54 1012.6
20260505032705 60 222 2.0 2.0 0.00 0.00 0.00 53 1012.4
20260505032200 60 148 1.0 1.0 0.00 0.00 0.00 55 1012.2
20260505031658 61 163 0.0 1.0 0.00 0.00 0.00 54 1012.3
20260505031154 61 174 1.0 1.0 0.00 0.00 0.00 52 1011.9
20260505030651 60 264 3.0 3.0 0.00 0.00 0.00 54 1012.2
20260505030147 61 182 1.0 1.0 0.00 0.00 0.00 53 1011.9
20260505025643 61 208 2.0 2.0 0.00 0.00 0.00 55 1011.7
20260505025142 61 219 2.0 2.0 0.00 0.00 0.00 55 1011.8
20260505024639 61 214 1.0 2.0 0.00 0.00 0.00 56 1011.7
20260505024136 62 167 2.0 2.0 0.00 0.00 0.00 55 1011.7
20260505023633 62 191 2.0 2.0 0.00 0.00 0.00 57 1011.6
20260505023131 64 170 2.0 2.0 0.00 0.00 0.00 54 1011.6
20260505022628 64 156 1.0 1.0 0.00 0.00 0.00 53 1011.3
20260505022125 64 3 1.0 1.0 0.00 0.00 0.00 53 1011.4
20260505021621 64 359 2.0 3.0 0.00 0.00 0.00 53 1011.3
20260505021118 64 351 2.0 2.0 0.00 0.00 0.00 53 1011.4
20260505020614 64 357 3.0 5.0 0.00 0.00 0.00 52 1011.6
20260505020110 65 344 3.0 3.0 0.00 0.00 0.00 51 1011.3
20260505015607 66 7 5.0 8.0 0.00 0.00 0.00 47 1011.3
20260505015104 67 1 3.0 3.0 0.00 0.00 0.00 49 1011.1
20260505014601 67 7 6.0 8.0 0.00 0.00 0.00 47 1011.0
20260505014058 68 44 8.0 9.0 0.00 0.00 0.00 45 1011.0
20260505013555 68 4 6.0 10.0 0.00 0.00 0.00 45 1011.3
20260505013052 68 316 5.0 7.0 0.00 0.00 0.00 46 1011.4
20260505012550 67 352 9.0 10.0 0.00 0.00 0.00 43 1011.3
20260505012047 66 348 5.0 7.0 0.00 0.00 0.00 47 1011.4
20260505011542 67 16 4.0 5.0 0.00 0.00 0.00 47 1011.1
20260505011040 67 343 9.0 10.0 0.00 0.00 0.00 46 1011.4
20260505010535 67 21 7.0 8.0 0.00 0.00 0.00 46 1011.5
20260505010032 68 350 10.0 13.0 0.00 0.00 0.00 42 1011.3
20260505005528 68 15 5.0 7.0 0.00 0.00 0.00 43 1011.3
20260505005026 67 306 7.0 8.0 0.00 0.00 0.00 44 1011.3
20260505004523 66 345 6.0 9.0 0.00 0.00 0.00 44 1011.1
20260505004019 67 343 6.0 8.0 0.00 0.00 0.00 44 1011.3
20260505003517 66 19 8.0 9.0 0.00 0.00 0.00 39 1011.3
20260505003014 66 40 8.0 10.0 0.00 0.00 0.00 44 1011.1
20260505002509 66 331 5.0 6.0 0.00 0.00 0.00 47 1011.4
20260505002008 67 343 6.0 8.0 0.00 0.00 0.00 48 1011.4
20260505001505 67 354 7.0 11.0 0.00 0.00 0.00 46 1011.0
20260505001002 67 10 8.0 10.0 0.00 0.00 0.00 45 1011.1
20260505000500 68 8 11.0 13.0 0.00 0.00 0.00 42 1011.3
20260504235956 69 350 9.0 13.0 0.00 0.00 0.00 42 1011.4
20260504235454 68 28 8.0 10.0 0.00 0.00 0.00 43 1010.9
20260504234950 69 8 8.0 9.0 0.00 0.00 0.00 42 1011.1
20260504234447 69 354 7.0 9.0 0.00 0.00 0.00 44 1011.0
20260504233944 69 5 6.0 8.0 0.00 0.00 0.00 43 1011.0
20260504233439 70 353 6.0 8.0 0.00 0.00 0.00 43 1010.9
20260504232937 71 347 4.0 5.0 0.00 0.00 0.00 41 1010.9
20260504232434 73 41 7.0 8.0 0.00 0.00 0.00 38 1010.8
20260504231931 73 278 8.0 9.0 0.00 0.00 0.00 36 1010.9
20260504231427 73 279 4.0 6.0 0.00 0.00 0.00 39 1011.1
20260504230923 73 328 4.0 5.0 0.00 0.00 0.00 34 1010.7
20260504230420 73 281 7.0 8.0 0.00 0.00 0.00 37 1011.0
20260504225919 73 232 13.0 20.0 0.00 0.00 0.00 39 1011.0
20260504225416 73 323 6.0 7.0 0.00 0.00 0.00 36 1011.0
20260504224913 72 260 5.0 7.0 0.00 0.00 0.00 38 1010.9
20260504224409 73 304 7.0 8.0 0.00 0.00 0.00 36 1011.1
20260504223907 72 298 6.0 7.0 0.00 0.00 0.00 41 1011.1
20260504223402 71 288 9.0 10.0 0.00 0.00 0.00 41 1011.3
20260504222858 72 304 5.0 6.0 0.00 0.00 0.00 39 1011.3
20260504222355 73 280 7.0 7.0 0.00 0.00 0.00 41 1011.3
20260504221854 73 295 6.0 8.0 0.00 0.00 0.00 39 1011.3
20260504221350 72 301 9.0 11.0 0.00 0.00 0.00 38 1011.5
20260504220848 72 299 4.0 5.0 0.00 0.00 0.00 37 1011.4
20260504220344 72 266 8.0 9.0 0.00 0.00 0.00 40 1011.5
20260504215841 72 258 12.0 14.0 0.00 0.00 0.00 40 1011.8
20260504215337 73 219 11.0 13.0 0.00 0.00 0.00 38 1011.6
20260504214834 72 243 5.0 6.0 0.00 0.00 0.00 39 1011.7
20260504214331 72 279 9.0 11.0 0.00 0.00 0.00 38 1011.9
20260504213827 71 255 6.0 7.0 0.00 0.00 0.00 43 1011.8
20260504213323 72 293 10.0 13.0 0.00 0.00 0.00 39 1011.9
20260504212821 72 253 9.0 11.0 0.00 0.00 0.00 39 1011.8
20260504212317 71 270 7.0 8.0 0.00 0.00 0.00 42 1011.9
20260504211815 72 230 5.0 6.0 0.00 0.00 0.00 41 1012.0
20260504211311 72 307 6.0 8.0 0.00 0.00 0.00 38 1011.9
20260504210808 71 246 3.0 3.0 0.00 0.00 0.00 36 1011.9
20260504210305 71 287 5.0 6.0 0.00 0.00 0.00 40 1011.8
20260504205803 70 238 2.0 2.0 0.00 0.00 0.00 38 1012.0
20260504205300 71 277 10.0 13.0 0.00 0.00 0.00 40 1012.3
20260504204758 71 282 7.0 9.0 0.00 0.00 0.00 41 1012.0
20260504204256 71 296 3.0 3.0 0.00 0.00 0.00 37 1012.0
20260504203755 71 288 4.0 6.0 0.00 0.00 0.00 35 1012.0
20260504203252 71 254 5.0 7.0 0.00 0.00 0.00 35 1012.2
20260504202752 71 308 3.0 5.0 0.00 0.00 0.00 34 1012.3
20260504202250 71 275 6.0 7.0 0.00 0.00 0.00 42 1012.2
20260504201747 70 232 11.0 13.0 0.00 0.00 0.00 36 1012.4
20260504201244 70 245 4.0 5.0 0.00 0.00 0.00 41 1012.3
20260504200742 70 266 5.0 6.0 0.00 0.00 0.00 36 1012.5
20260504200237 70 281 7.0 9.0 0.00 0.00 0.00 36 1012.6
20260504195734 71 239 9.0 10.0 0.00 0.00 0.00 34 1012.2
20260504195230 70 286 11.0 14.0 0.00 0.00 0.00 36 1012.3
20260504194727 70 280 6.0 8.0 0.00 0.00 0.00 32 1012.3
20260504194223 70 230 5.0 6.0 0.00 0.00 0.00 33 1012.4
20260504193720 69 229 5.0 6.0 0.00 0.00 0.00 38 1012.6
20260504193218 70 284 9.0 10.0 0.00 0.00 0.00 35 1012.6
20260504192716 70 296 6.0 7.0 0.00 0.00 0.00 36 1012.7
20260504192213 69 289 9.0 10.0 0.00 0.00 0.00 40 1012.6
20260504191712 69 235 7.0 9.0 0.00 0.00 0.00 41 1012.5
20260504191208 69 276 7.0 8.0 0.00 0.00 0.00 39 1012.6
20260504190703 70 272 5.0 6.0 0.00 0.00 0.00 43 1012.7
20260504190200 69 229 9.0 10.0 0.00 0.00 0.00 41 1012.8
20260504185657 69 256 7.0 8.0 0.00 0.00 0.00 43 1012.8
20260504185153 69 261 6.0 7.0 0.00 0.00 0.00 41 1012.9
20260504184649 69 289 4.0 5.0 0.00 0.00 0.00 40 1012.9
20260504184144 68 248 5.0 6.0 0.00 0.00 0.00 43 1012.8
20260504183642 69 286 6.0 7.0 0.00 0.00 0.00 44 1012.9
20260504183139 69 239 4.0 5.0 0.00 0.00 0.00 48 1013.2
20260504182637 69 295 4.0 6.0 0.00 0.00 0.00 40 1012.9
20260504182134 69 297 8.0 8.0 0.00 0.00 0.00 41 1013.1
20260504181631 68 106 2.0 2.0 0.00 0.00 0.00 40 1013.2
20260504181129 68 299 3.0 5.0 0.00 0.00 0.00 42 1012.7
20260504180628 68 261 2.0 2.0 0.00 0.00 0.00 41 1013.1
20260504180126 69 10 2.0 3.0 0.00 0.00 0.00 41 1013.1
20260504175623 68 356 1.0 1.0 0.00 0.00 0.00 40 1013.2
20260504175120 68 275 5.0 6.0 0.00 0.00 0.00 41 1013.1
20260504174618 67 335 2.0 3.0 0.00 0.00 0.00 42 1013.1
20260504174114 67 236 4.0 5.0 0.00 0.00 0.00 48 1013.2
20260504173611 66 38 2.0 2.0 0.00 0.00 0.00 45 1012.9
20260504173109 66 267 5.0 6.0 0.00 0.00 0.00 42 1013.3
20260504172605 66 208 2.0 2.0 0.00 0.00 0.00 41 1013.1
20260504172102 67 269 4.0 5.0 0.00 0.00 0.00 42 1013.2
20260504171558 67 303 3.0 3.0 0.00 0.00 0.00 42 1013.2
20260504171055 67 291 3.0 5.0 0.00 0.00 0.00 47 1013.3
20260504170551 66 195 1.0 1.0 0.00 0.00 0.00 42 1013.3